When you browse on this site, cookies collect data to enhance your experience and personalize the content and advertising you see.
Visit our Privacy Policy to learn more. By continuing to use the site, you agree to this use of cookies and data.
  • In Italy
  • List of Countries
  • For 7 days
  • Water Temperature
  • Satellite Maps
  • Weather Map
  • Weather Widgets
  • user-avatar
    Login

    Hourly Weather Annaba

    Today, 16 January, Wednesday

    Time Temperature Precipitation Wind Pressure Humidity
    00:00 +11°C° 0 mm 1 mps 765 mmHg 86%
    01:00 +10°C° 0 mm 1 mps 765 mmHg 87%
    02:00 +10°C° 0 mm 1 mps 764 mmHg 87%
    03:00 +10°C° 0 mm 1 mps 764 mmHg 87%
    04:00 +9°C° 0 mm 1 mps 764 mmHg 86%
    05:00 +9°C° 0 mm 1 mps 764 mmHg 86%
    06:00 +9°C° 0 mm 1 mps 764 mmHg 85%
    07:00 +9°C° 0 mm 1 mps 764 mmHg 85%
    08:00 +10°C° 0 mm 1 mps 764 mmHg 80%
    09:00 +12°C° 0 mm 1 mps 764 mmHg 75%
    10:00 +13°C° 0 mm 1 mps 764 mmHg 69%
    11:00 +15°C° 0 mm 1 mps 763 mmHg 62%
    12:00 +16°C° 0 mm 1 mps 763 mmHg 55%
    13:00 +19°C° 0 mm 1 mps 763 mmHg 48%
    14:00 +19°C° 0 mm 1 mps 762 mmHg 48%
    15:00 +19°C° 0 mm 1 mps 762 mmHg 49%
    16:00 +19°C° 0 mm 1 mps 762 mmHg 49%
    17:00 +16°C° 0 mm 1 mps 762 mmHg 57%
    18:00 +15°C° 0 mm 2 mps 762 mmHg 64%
    19:00 +13°C° 0 mm 2 mps 762 mmHg 71%
    20:00 +12°C° 0 mm 2 mps 762 mmHg 71%
    21:00 +12°C° 0 mm 1 mps 762 mmHg 72%
    22:00 +11°C° 0 mm 1 mps 762 mmHg 72%
    23:00 +11°C° 0 mm 1 mps 762 mmHg 71%

    Tomorrow, 17 January, Thursday

    Time Temperature Precipitation Wind Pressure Humidity
    00:00 +10°C° 0 mm 2 mps 762 mmHg 71%
    01:00 +9°C° 0 mm 2 mps 762 mmHg 70%
    02:00 +9°C° 0 mm 2 mps 762 mmHg 69%
    03:00 +9°C° 0 mm 2 mps 762 mmHg 68%
    04:00 +9°C° 0 mm 2 mps 761 mmHg 67%
    05:00 +9°C° 0 mm 2 mps 761 mmHg 67%
    06:00 +9°C° 0 mm 2 mps 761 mmHg 66%
    07:00 +9°C° 0 mm 2 mps 761 mmHg 66%
    08:00 +10°C° 0 mm 2 mps 761 mmHg 64%
    09:00 +12°C° 0 mm 2 mps 761 mmHg 61%
    10:00 +14°C° 0 mm 2 mps 761 mmHg 59%
    11:00 +15°C° 0 mm 1 mps 761 mmHg 54%
    12:00 +16°C° 0 mm 1 mps 761 mmHg 50%
    13:00 +18°C° 0 mm 1 mps 760 mmHg 46%
    14:00 +18°C° 0 mm 1 mps 760 mmHg 49%
    15:00 +17°C° 0 mm 2 mps 760 mmHg 52%
    16:00 +16°C° 0 mm 2 mps 760 mmHg 55%
    17:00 +15°C° 0 mm 1 mps 760 mmHg 61%
    18:00 +13°C° 0 mm 1 mps 760 mmHg 68%
    19:00 +10°C° 0 mm 0 mps 760 mmHg 75%
    20:00 +11°C° 0 mm 1 mps 761 mmHg 76%
    21:00 +11°C° 0 mm 1 mps 761 mmHg 77%
    22:00 +9°C° 0 mm 2 mps 761 mmHg 78%
    23:00 +9°C° 0 mm 2 mps 761 mmHg 78%

    Day after tomorrow, 18 January, Friday

    Time Temperature Precipitation Wind Pressure Humidity
    00:00 +9°C° 0 mm 2 mps 761 mmHg 78%
    01:00 +9°C° 0 mm 2 mps 761 mmHg 78%
    02:00 +8°C° 0 mm 2 mps 761 mmHg 77%
    03:00 +8°C° 0 mm 2 mps 760 mmHg 76%
    04:00 +8°C° 0 mm 2 mps 760 mmHg 75%
    05:00 +8°C° 0 mm 2 mps 760 mmHg 74%
    06:00 +8°C° 0 mm 2 mps 760 mmHg 73%
    07:00 +8°C° 0 mm 2 mps 760 mmHg 72%
    08:00 +10°C° 0 mm 2 mps 761 mmHg 68%
    09:00 +12°C° 0 mm 2 mps 761 mmHg 64%
    10:00 +14°C° 0 mm 2 mps 761 mmHg 60%
    11:00 +15°C° 0 mm 2 mps 761 mmHg 54%
    12:00 +16°C° 0 mm 1 mps 760 mmHg 48%
    13:00 +19°C° 0 mm 1 mps 760 mmHg 42%
    14:00 +18°C° 0 mm 2 mps 760 mmHg 45%
    15:00 +17°C° 0 mm 2 mps 759 mmHg 49%
    16:00 +17°C° 0 mm 2 mps 759 mmHg 52%
    17:00 +15°C° 0.1 mm 2 mps 759 mmHg 60%
    18:00 +13°C° 0.1 mm 2 mps 760 mmHg 67%
    19:00 +12°C° 0.1 mm 2 mps 760 mmHg 75%
    20:00 +10°C° 0.2 mm 2 mps 760 mmHg 76%
    21:00 +10°C° 0.2 mm 2 mps 761 mmHg 77%
    22:00 +10°C° 0.2 mm 2 mps 761 mmHg 78%
    23:00 +10°C° 0.3 mm 2 mps 761 mmHg 80%

    19 January, Saturday

    Time Temperature Precipitation Wind Pressure Humidity
    00:00 +10°C° 0.3 mm 2 mps 761 mmHg 81%
    01:00 +9°C° 0.3 mm 2 mps 761 mmHg 82%
    02:00 +9°C° 0.5 mm 2 mps 761 mmHg 84%
    03:00 +10°C° 0.5 mm 1 mps 761 mmHg 86%
    04:00 +10°C° 0.5 mm 1 mps 761 mmHg 88%
    05:00 +10°C° 0.4 mm 1 mps 761 mmHg 88%
    06:00 +10°C° 0.4 mm 1 mps 761 mmHg 88%
    07:00 +10°C° 0.4 mm 1 mps 761 mmHg 88%
    08:00 +11°C° 0.1 mm 1 mps 761 mmHg 85%
    09:00 +12°C° 0.1 mm 2 mps 761 mmHg 81%
    10:00 +13°C° 0.1 mm 2 mps 761 mmHg 78%
    11:00 +14°C° 0.3 mm 2 mps 761 mmHg 72%
    12:00 +15°C° 0.3 mm 2 mps 761 mmHg 67%
    13:00 +16°C° 0.3 mm 2 mps 760 mmHg 61%
    14:00 +16°C° 0.5 mm 3 mps 760 mmHg 63%
    15:00 +16°C° 0.5 mm 3 mps 760 mmHg 64%
    16:00 +14°C° 0.5 mm 4 mps 759 mmHg 66%
    17:00 +13°C° 0.5 mm 4 mps 760 mmHg 71%
    18:00 +12°C° 0.5 mm 3 mps 760 mmHg 77%
    19:00 +11°C° 0.5 mm 3 mps 760 mmHg 82%
    20:00 +10°C° 0.1 mm 3 mps 760 mmHg 82%
    21:00 +10°C° 0.1 mm 3 mps 760 mmHg 83%
    22:00 +9°C° 0.1 mm 3 mps 761 mmHg 84%
    23:00 +9°C° 0 mm 3 mps 760 mmHg 83%

    20 January, Sunday

    Time Temperature Precipitation Wind Pressure Humidity
    00:00 +9°C° 0 mm 3 mps 760 mmHg 83%
    01:00 +9°C° 0 mm 3 mps 760 mmHg 83%
    02:00 +8°C° 0 mm 2 mps 760 mmHg 82%
    03:00 +8°C° 0 mm 2 mps 759 mmHg 82%
    04:00 +8°C° 0 mm 2 mps 759 mmHg 81%
    05:00 +8°C° 0 mm 2 mps 759 mmHg 80%
    06:00 +8°C° 0 mm 2 mps 759 mmHg 79%
    07:00 +8°C° 0 mm 3 mps 758 mmHg 78%
    08:00 +10°C° 0 mm 3 mps 758 mmHg 73%
    09:00 +11°C° 0 mm 3 mps 758 mmHg 69%
    10:00 +12°C° 0 mm 3 mps 758 mmHg 65%
    11:00 +14°C° 0 mm 3 mps 757 mmHg 59%
    12:00 +17°C° 0 mm 3 mps 757 mmHg 52%
    13:00 +19°C° 0 mm 3 mps 756 mmHg 46%
    14:00 +19°C° 0 mm 3 mps 756 mmHg 51%
    15:00 +18°C° 0 mm 2 mps 755 mmHg 55%
    16:00 +19°C° 0 mm 1 mps 755 mmHg 60%
    17:00 +17°C° 0.3 mm 2 mps 755 mmHg 67%
    18:00 +14°C° 0.3 mm 3 mps 755 mmHg 75%
    19:00 +12°C° 0.3 mm 4 mps 755 mmHg 83%
    20:00 +12°C° 0 mm 4 mps 756 mmHg 82%
    21:00 +10°C° 0 mm 5 mps 756 mmHg 82%
    22:00 +10°C° 0 mm 5 mps 756 mmHg 82%
    23:00 +10°C° 0.1 mm 6 mps 756 mmHg 82%

    21 January, Monday

    Time Temperature Precipitation Wind Pressure Humidity
    00:00 +10°C° 0.1 mm 7 mps 757 mmHg 81%
    01:00 +10°C° 0.1 mm 8 mps 757 mmHg 81%
    02:00 +10°C° 0.3 mm 8 mps 757 mmHg 81%
    03:00 +10°C° 0.3 mm 8 mps 757 mmHg 82%
    04:00 +10°C° 0.3 mm 8 mps 757 mmHg 82%
    05:00 +9°C° 0.2 mm 8 mps 758 mmHg 82%
    06:00 +9°C° 0.2 mm 7 mps 758 mmHg 82%
    07:00 +9°C° 0.2 mm 7 mps 758 mmHg 82%
    08:00 +9°C° 0.1 mm 7 mps 759 mmHg 79%
    09:00 +10°C° 0.1 mm 7 mps 759 mmHg 76%
    10:00 +11°C° 0.1 mm 7 mps 760 mmHg 73%
    11:00 +12°C° 0.3 mm 7 mps 759 mmHg 71%
    12:00 +12°C° 0.3 mm 7 mps 759 mmHg 68%
    13:00 +14°C° 0.3 mm 7 mps 759 mmHg 66%
    14:00 +12°C° 0.3 mm 7 mps 759 mmHg 67%
    15:00 +13°C° 0.3 mm 6 mps 759 mmHg 68%
    16:00 +13°C° 0.3 mm 6 mps 759 mmHg 69%
    17:00 +12°C° 0.3 mm 5 mps 759 mmHg 73%
    18:00 +10°C° 0.3 mm 5 mps 759 mmHg 76%
    19:00 +9°C° 0.3 mm 5 mps 760 mmHg 80%
    20:00 +8°C° 0.4 mm 4 mps 760 mmHg 81%
    21:00 +8°C° 0.4 mm 4 mps 760 mmHg 82%
    22:00 +8°C° 0.4 mm 4 mps 760 mmHg 83%
    23:00 +8°C° 0.5 mm 4 mps 760 mmHg 82%
    Show more